Time,TemperatureF,DewpointF,PressureIn,WindDirection,WindDirectionDegrees,WindSpeedMPH,WindSpeedGustMPH,Humidity,HourlyPrecipIn,Conditions,Clouds,dailyrainin,SolarRadiationWatts/m^2,SoftwareType,DateUTC
2013-07-11 00:02:00,62.0,59.0,-100.00,NW,317,2.0,5.0,90,0.00,,,0.00,0.000000,,2013-07-11 05:02:00,
2013-07-11 00:32:00,59.0,58.0,-100.00,NNW,333,1.0,3.0,95,0.00,,,0.00,0.000000,,2013-07-11 05:32:00,
2013-07-11 00:43:00,59.0,58.0,-100.00,NNW,333,1.0,3.0,95,0.00,,,0.00,0.000000,,2013-07-11 05:43:00,
2013-07-11 00:52:00,59.0,58.0,-100.00,NNW,333,1.0,3.0,95,0.00,,,0.00,0.000000,,2013-07-11 05:52:00,
2013-07-11 01:01:00,59.0,58.0,-100.00,NNW,333,1.0,3.0,95,0.00,,,0.00,0.000000,,2013-07-11 06:01:00,
2013-07-11 01:32:00,58.0,57.0,-100.00,NW,305,0.0,4.0,97,0.00,,,0.00,0.000000,,2013-07-11 06:32:00,
2013-07-11 01:43:00,58.0,57.0,-100.00,NW,305,0.0,4.0,97,0.00,,,0.00,0.000000,,2013-07-11 06:43:00,
2013-07-11 01:53:00,58.0,57.0,-100.00,NW,305,0.0,4.0,97,0.00,,,0.00,0.000000,,2013-07-11 06:53:00,
2013-07-11 02:02:00,58.0,57.0,-100.00,NW,305,0.0,4.0,97,0.00,,,0.00,0.000000,,2013-07-11 07:02:00,
2013-07-11 02:32:00,56.0,55.0,-100.00,East,93,1.0,4.0,98,0.00,,,0.00,0.000000,,2013-07-11 07:32:00,
2013-07-11 02:45:00,56.0,55.0,-100.00,East,93,1.0,4.0,98,0.00,,,0.00,0.000000,,2013-07-11 07:45:00,
2013-07-11 02:53:00,56.0,55.0,-100.00,East,93,1.0,4.0,98,0.00,,,0.00,0.000000,,2013-07-11 07:53:00,
2013-07-11 03:02:00,56.0,55.0,-100.00,East,93,1.0,4.0,98,0.00,,,0.00,0.000000,,2013-07-11 08:02:00,
2013-07-11 03:34:00,55.0,54.0,-100.00,NW,322,2.0,2.0,98,0.00,,,0.00,0.000000,,2013-07-11 08:34:00,
2013-07-11 03:43:00,55.0,54.0,-100.00,NW,322,2.0,2.0,98,0.00,,,0.00,0.000000,,2013-07-11 08:43:00,
2013-07-11 03:53:00,55.0,54.0,-100.00,NW,322,2.0,2.0,98,0.00,,,0.00,0.000000,,2013-07-11 08:53:00,
2013-07-11 04:03:00,55.0,54.0,-100.00,NW,322,2.0,2.0,98,0.00,,,0.00,0.000000,,2013-07-11 09:03:00,
2013-07-11 04:33:00,54.0,53.0,-100.00,ENE,73,1.0,2.0,98,0.00,,,0.00,0.000000,,2013-07-11 09:33:00,
2013-07-11 04:43:00,54.0,53.0,-100.00,ENE,73,1.0,2.0,98,0.00,,,0.00,0.000000,,2013-07-11 09:43:00,
2013-07-11 04:53:00,54.0,53.0,-100.00,ENE,73,1.0,2.0,98,0.00,,,0.00,0.000000,,2013-07-11 09:53:00,
2013-07-11 05:01:00,54.0,53.0,-100.00,ENE,73,1.0,2.0,98,0.00,,,0.00,0.000000,,2013-07-11 10:01:00,
2013-07-11 05:33:00,53.0,52.0,-100.00,NNW,341,1.0,2.0,98,0.00,,,0.00,0.000000,,2013-07-11 10:33:00,
2013-07-11 05:43:00,53.0,52.0,-100.00,NNW,341,1.0,2.0,98,0.00,,,0.00,0.000000,,2013-07-11 10:43:00,
2013-07-11 05:52:00,53.0,52.0,-100.00,NNW,341,1.0,2.0,98,0.00,,,0.00,0.000000,,2013-07-11 10:52:00,
2013-07-11 06:02:00,53.0,52.0,-100.00,NNW,341,1.0,2.0,98,0.00,,,0.00,0.000000,,2013-07-11 11:02:00,
2013-07-11 06:33:00,52.0,51.0,-100.00,NNW,330,0.0,3.0,98,0.00,,,-99.99,7.000000,,2013-07-11 11:33:00,
2013-07-11 06:43:00,52.0,51.0,-100.00,NNW,330,0.0,3.0,98,0.00,,,-99.99,7.000000,,2013-07-11 11:43:00,
2013-07-11 06:53:00,52.0,51.0,-100.00,NNW,330,0.0,3.0,98,0.00,,,-99.99,7.000000,,2013-07-11 11:53:00,
2013-07-11 07:01:00,52.0,51.0,-100.00,NNW,330,0.0,3.0,98,0.00,,,-99.99,7.000000,,2013-07-11 12:01:00,
2013-07-11 07:33:00,58.0,57.0,-100.00,ESE,108,1.0,4.0,97,0.00,,,-99.99,87.000000,,2013-07-11 12:33:00,
2013-07-11 07:43:00,58.0,57.0,-100.00,ESE,108,1.0,4.0,97,0.00,,,-99.99,87.000000,,2013-07-11 12:43:00,
2013-07-11 07:57:00,58.0,57.0,-100.00,ESE,108,1.0,4.0,97,0.00,,,-99.99,87.000000,,2013-07-11 12:57:00,
2013-07-11 08:02:00,58.0,57.0,-100.00,ESE,108,1.0,4.0,97,0.00,,,-99.99,87.000000,,2013-07-11 13:02:00,
2013-07-11 08:47:00,66.0,60.0,-100.00,SSW,206,1.0,2.0,82,0.00,,,0.00,245.000000,,2013-07-11 13:47:00,
2013-07-11 08:54:00,66.0,60.0,-100.00,SSW,206,1.0,2.0,82,0.00,,,0.00,245.000000,,2013-07-11 13:54:00,
2013-07-11 09:05:00,66.0,60.0,-100.00,SSW,206,1.0,2.0,82,0.00,,,0.00,245.000000,,2013-07-11 14:05:00,
2013-07-11 09:36:00,71.0,58.0,-100.00,SSE,166,4.0,6.0,64,0.00,,,0.00,433.000000,,2013-07-11 14:36:00,
2013-07-11 09:55:00,71.0,58.0,-100.00,SSE,166,4.0,6.0,64,0.00,,,0.00,433.000000,,2013-07-11 14:55:00,
2013-07-11 10:04:00,71.0,58.0,-100.00,SSE,166,4.0,6.0,64,0.00,,,0.00,433.000000,,2013-07-11 15:04:00,
2013-07-11 10:38:00,75.0,57.0,-100.00,SSE,149,5.0,10.0,54,0.00,,,0.00,606.000000,,2013-07-11 15:38:00,
2013-07-11 10:48:00,75.0,57.0,-100.00,SSE,149,5.0,10.0,54,0.00,,,0.00,606.000000,,2013-07-11 15:48:00,
2013-07-11 10:58:00,75.0,57.0,-100.00,SSE,149,5.0,10.0,54,0.00,,,0.00,606.000000,,2013-07-11 15:58:00,
2013-07-11 11:05:00,75.0,57.0,-100.00,SSE,149,5.0,10.0,54,0.00,,,0.00,606.000000,,2013-07-11 16:05:00,
2013-07-11 11:36:00,77.0,56.0,-100.00,South,178,7.0,11.0,49,0.00,,,0.00,754.000000,,2013-07-11 16:36:00,
2013-07-11 11:49:00,77.0,56.0,-100.00,South,178,7.0,11.0,49,0.00,,,0.00,754.000000,,2013-07-11 16:49:00,
2013-07-11 11:56:00,77.0,56.0,-100.00,South,178,7.0,11.0,49,0.00,,,0.00,754.000000,,2013-07-11 16:56:00,
2013-07-11 12:56:00,80.0,58.0,-100.00,South,177,8.0,13.0,47,0.00,,,0.00,852.000000,,2013-07-11 17:56:00,
2013-07-11 13:05:00,80.0,58.0,-100.00,South,177,8.0,13.0,47,0.00,,,0.00,852.000000,,2013-07-11 18:05:00,
2013-07-11 13:36:00,81.0,56.0,-100.00,South,173,8.0,16.0,43,0.00,,,0.00,936.000000,,2013-07-11 18:36:00,
2013-07-11 13:49:00,81.0,56.0,-100.00,South,173,8.0,16.0,43,0.00,,,0.00,936.000000,,2013-07-11 18:49:00,
2013-07-11 13:56:00,81.0,56.0,-100.00,South,173,8.0,16.0,43,0.00,,,0.00,936.000000,,2013-07-11 18:56:00,
2013-07-11 14:04:00,81.0,56.0,-100.00,South,173,8.0,16.0,43,0.00,,,0.00,936.000000,,2013-07-11 19:04:00,
2013-07-11 14:39:00,82.0,55.0,-100.00,South,169,9.0,15.0,40,0.00,,,0.00,947.000000,,2013-07-11 19:39:00,
2013-07-11 14:47:00,82.0,55.0,-100.00,South,169,9.0,15.0,40,0.00,,,0.00,947.000000,,2013-07-11 19:47:00,
2013-07-11 14:57:00,82.0,55.0,-100.00,South,169,9.0,15.0,40,0.00,,,0.00,947.000000,,2013-07-11 19:57:00,
2013-07-11 15:05:00,82.0,55.0,-100.00,South,169,9.0,15.0,40,0.00,,,0.00,947.000000,,2013-07-11 20:05:00,
2013-07-11 15:40:00,83.0,56.0,-100.00,SSE,159,10.0,16.0,40,0.00,,,0.00,903.000000,,2013-07-11 20:40:00,
2013-07-11 15:49:00,83.0,56.0,-100.00,SSE,159,10.0,16.0,40,0.00,,,0.00,903.000000,,2013-07-11 20:49:00,
2013-07-11 15:56:00,83.0,56.0,-100.00,SSE,159,10.0,16.0,40,0.00,,,0.00,903.000000,,2013-07-11 20:56:00,
2013-07-11 16:05:00,83.0,56.0,-100.00,SSE,159,10.0,16.0,40,0.00,,,0.00,903.000000,,2013-07-11 21:05:00,
2013-07-11 16:36:00,83.0,57.0,-100.00,SSE,155,10.0,17.0,41,0.00,,,0.00,790.000000,,2013-07-11 21:36:00,
2013-07-11 16:46:00,83.0,57.0,-100.00,SSE,155,10.0,17.0,41,0.00,,,0.00,790.000000,,2013-07-11 21:46:00,
2013-07-11 16:58:00,83.0,57.0,-100.00,SSE,155,10.0,17.0,41,0.00,,,0.00,790.000000,,2013-07-11 21:58:00,
2013-07-11 17:05:00,83.0,57.0,-100.00,SSE,155,10.0,17.0,41,0.00,,,0.00,790.000000,,2013-07-11 22:05:00,
2013-07-11 17:36:00,84.0,56.0,-100.00,South,190,12.0,17.0,38,0.00,,,-99.99,683.000000,,2013-07-11 22:36:00,
2013-07-11 17:49:00,84.0,56.0,-100.00,South,190,12.0,17.0,38,0.00,,,-99.99,683.000000,,2013-07-11 22:49:00,
2013-07-11 17:55:00,84.0,56.0,-100.00,South,190,12.0,17.0,38,0.00,,,-99.99,683.000000,,2013-07-11 22:55:00,
2013-07-11 18:06:00,84.0,56.0,-100.00,South,190,12.0,17.0,38,0.00,,,-99.99,683.000000,,2013-07-11 23:06:00,
2013-07-11 18:37:00,83.0,53.0,-100.00,South,178,11.0,17.0,36,0.00,,,0.00,511.000000,,2013-07-11 23:37:00,
2013-07-11 18:47:00,83.0,53.0,-100.00,South,178,11.0,17.0,36,0.00,,,0.00,511.000000,,2013-07-11 23:47:00,
2013-07-11 18:59:00,83.0,53.0,-100.00,South,178,11.0,17.0,36,0.00,,,0.00,511.000000,,2013-07-11 23:59:00,
2013-07-11 19:05:00,83.0,53.0,-100.00,South,178,11.0,17.0,36,0.00,,,0.00,511.000000,,2013-07-12 00:05:00,
2013-07-11 19:37:00,82.0,57.0,-100.00,South,176,7.0,13.0,43,0.00,,,0.00,324.000000,,2013-07-12 00:37:00,
2013-07-11 19:46:00,82.0,57.0,-100.00,South,176,7.0,13.0,43,0.00,,,0.00,324.000000,,2013-07-12 00:46:00,
2013-07-11 19:58:00,82.0,57.0,-100.00,South,176,7.0,13.0,43,0.00,,,0.00,324.000000,,2013-07-12 00:58:00,
2013-07-11 20:04:00,82.0,57.0,-100.00,South,176,7.0,13.0,43,0.00,,,0.00,324.000000,,2013-07-12 01:04:00,
2013-07-11 20:38:00,78.0,61.0,-100.00,SE,136,4.0,10.0,56,0.00,,,0.00,128.000000,,2013-07-12 01:38:00,
2013-07-11 20:48:00,78.0,61.0,-100.00,SE,136,4.0,10.0,56,0.00,,,0.00,128.000000,,2013-07-12 01:48:00,
2013-07-11 20:56:00,78.0,61.0,-100.00,SE,136,4.0,10.0,56,0.00,,,0.00,128.000000,,2013-07-12 01:56:00,
2013-07-11 21:06:00,78.0,61.0,-100.00,SE,136,4.0,10.0,56,0.00,,,0.00,128.000000,,2013-07-12 02:06:00,
2013-07-11 21:36:00,74.0,61.0,-100.00,SE,135,4.0,7.0,63,0.00,,,0.00,24.000000,,2013-07-12 02:36:00,
2013-07-11 21:45:00,74.0,61.0,-100.00,SE,135,4.0,7.0,63,0.00,,,0.00,24.000000,,2013-07-12 02:45:00,
2013-07-11 21:55:00,74.0,61.0,-100.00,SE,135,4.0,7.0,63,0.00,,,0.00,24.000000,,2013-07-12 02:55:00,
2013-07-11 22:03:00,74.0,61.0,-100.00,SE,135,4.0,7.0,63,0.00,,,0.00,24.000000,,2013-07-12 03:03:00,
2013-07-11 22:38:00,72.0,60.0,-100.00,SE,132,4.0,6.0,66,0.00,,,0.00,0.000000,,2013-07-12 03:38:00,
2013-07-11 22:46:00,72.0,60.0,-100.00,SE,132,4.0,6.0,66,0.00,,,0.00,0.000000,,2013-07-12 03:46:00,
2013-07-11 22:56:00,72.0,60.0,-100.00,SE,132,4.0,6.0,66,0.00,,,0.00,0.000000,,2013-07-12 03:56:00,
2013-07-11 23:01:00,72.0,60.0,-100.00,SE,132,4.0,6.0,66,0.00,,,0.00,0.000000,,2013-07-12 04:01:00,
2013-07-11 23:32:00,71.0,59.0,-100.00,SSE,148,5.0,7.0,67,0.00,,,0.00,0.000000,,2013-07-12 04:32:00,
2013-07-11 23:43:00,71.0,59.0,-100.00,SSE,148,5.0,7.0,67,0.00,,,0.00,0.000000,,2013-07-12 04:43:00,
2013-07-11 23:53:00,71.0,59.0,-100.00,SSE,148,5.0,7.0,67,0.00,,,0.00,0.000000,,2013-07-12 04:53:00,